Total_Precipitation_Accumulation
0.00 0.00 0.00 0.00 0.00 0.00 0.00 0.00 0.00 0.02 0.04 0.02 0.05 0.05 0.06 0.05 0.09 0.20 0.10 0.06 0.12 0.07 0.03 0.08 0.22 0.03 0.00 0.00 0.00 0.00 0.00 0.00 0.00 0.00 0.00 0.00 0.00 0.00 0.00 0.00 0.00 0.00 0.00 0.00 0.00 0.00 0.00 0.00 0.00
0.00 0.00 0.00 0.00 0.00 0.00 0.00 0.02 0.01 0.06 0.17 0.19 0.16 0.12 0.08 0.16 0.07 0.10 0.25 0.24 0.17 0.04 0.02 0.04 0.12 0.05 0.00 0.00 0.00 0.00 0.00 0.00 0.00 0.00 0.00 0.00 0.00 0.00 0.00 0.00 0.00 0.00 0.00 0.00 0.00 0.00 0.00 0.00 0.00
0.00 0.00 0.00 0.00 0.00 0.00 0.00 0.02 0.02 0.02 0.06 0.10 0.10 0.04 0.15 0.17 0.27 0.40 0.38 0.26 0.22 0.11 0.02 0.04 0.07 0.11 0.05 0.01 0.00 0.00 0.00 0.00 0.00 0.00 0.00 0.00 0.00 0.00 0.00 0.00 0.00 0.00 0.00 0.00 0.00 0.00 0.00 0.00 0.00
0.00 0.00 0.00 0.00 0.00 0.00 0.00 0.02 0.03 0.12 0.11 0.07 0.08 0.07 0.15 0.18 0.39 0.42 0.46 0.47 0.42 0.22 0.11 0.13 0.22 0.27 0.06 0.00 0.00 0.00 0.00 0.00 0.00 0.00 0.00 0.00 0.00 0.00 0.00 0.00 0.00 0.00 0.00 0.00 0.00 0.00 0.00 0.00 0.00
0.00 0.00 0.00 0.00 0.00 0.00 0.01 0.06 0.16 0.17 0.16 0.07 0.01 0.06 0.12 0.11 0.22 0.43 0.88 1.19 1.29 0.93 0.58 0.45 0.82 0.64 0.10 0.00 0.00 0.00 0.00 0.00 0.00 0.00 0.00 0.00 0.00 0.00 0.00 0.00 0.00 0.00 0.00 0.00 0.00 0.00 0.00 0.00 0.00
0.00 0.00 0.00 0.00 0.00 0.00 0.01 0.11 0.29 0.35 0.12 0.09 0.04 0.01 0.10 0.18 0.23 0.56 1.51 1.74 1.89 2.07 1.80 1.22 1.27 0.82 0.07 0.00 0.00 0.00 0.00 0.00 0.00 0.00 0.00 0.00 0.00 0.00 0.00 0.00 0.00 0.00 0.00 0.00 0.00 0.00 0.00 0.00 0.00
0.00 0.00 0.00 0.00 0.00 0.01 0.04 0.13 0.20 0.18 0.05 0.01 0.02 0.06 0.15 0.18 0.27 0.79 1.50 3.61 4.49 3.56 2.70 2.43 1.08 0.38 0.04 0.00 0.00 0.00 0.00 0.00 0.00 0.00 0.00 0.00 0.00 0.00 0.00 0.00 0.00 0.00 0.00 0.00 0.00 0.00 0.00 0.00 0.00
0.00 0.00 0.00 0.00 0.01 0.03 0.08 0.21 0.26 0.13 0.08 0.06 0.07 0.11 0.10 0.15 0.28 0.34 0.61 1.79 5.34 5.23 3.04 2.28 1.01 0.19 0.03 0.00 0.00 0.00 0.00 0.00 0.00 0.00 0.00 0.00 0.00 0.00 0.00 0.00 0.00 0.00 0.00 0.00 0.00 0.00 0.00 0.00 0.00
0.00 0.00 0.00 0.00 0.04 0.11 0.13 0.12 0.05 0.01 0.00 0.04 0.14 0.17 0.26 0.15 0.09 0.15 0.80 0.78 1.70 2.63 2.25 1.43 0.49 0.05 0.01 0.00 0.00 0.00 0.00 0.00 0.00 0.00 0.00 0.00 0.00 0.00 0.00 0.00 0.00 0.00 0.00 0.00 0.00 0.00 0.00 0.00 0.00
0.00 0.00 0.00 0.00 0.02 0.28 0.21 0.26 0.23 0.04 0.02 0.05 0.12 0.43 0.34 0.10 0.11 0.18 0.53 0.66 1.51 1.87 1.20 0.59 0.23 0.02 0.00 0.00 0.00 0.00 0.00 0.00 0.00 0.00 0.00 0.02 0.01 0.00 0.00 0.00 0.00 0.00 0.00 0.00 0.00 0.00 0.00 0.00 0.00
0.00 0.00 0.00 0.00 0.00 0.05 0.09 0.01 0.01 0.04 0.01 0.02 0.16 0.18 0.04 0.06 0.04 0.14 0.30 0.61 1.02 0.72 0.56 0.27 0.06 0.00 0.00 0.00 0.00 0.00 0.00 0.00 0.00 0.02 0.03 0.03 0.00 0.01 0.02 0.00 0.00 0.00 0.00 0.00 0.00 0.00 0.00 0.00 0.00
0.00 0.00 0.00 0.00 0.01 0.00 0.00 0.00 0.00 0.02 0.11 0.03 0.04 0.13 0.02 0.05 0.14 0.23 0.29 0.30 0.17 0.11 0.16 0.10 0.00 0.00 0.00 0.00 0.00 0.00 0.01 0.04 0.06 0.07 0.03 0.01 0.02 0.04 0.00 0.00 0.00 0.00 0.00 0.00 0.00 0.00 0.00 0.00 0.00
0.00 0.00 0.00 0.00 0.02 0.02 0.01 0.01 0.01 0.06 0.07 0.13 0.14 0.15 0.08 0.09 0.15 0.12 0.09 0.08 0.00 0.01 0.02 0.04 0.00 0.00 0.00 0.00 0.00 0.01 0.08 0.07 0.09 0.08 0.03 0.00 0.00 0.00 0.00 0.00 0.00 0.00 0.00 0.00 0.00 0.00 0.00 0.00 0.00
0.00 0.00 0.00 0.02 0.01 0.01 0.01 0.01 0.06 0.13 0.14 0.19 0.12 0.07 0.09 0.07 0.09 0.07 0.03 0.00 0.00 0.00 0.00 0.01 0.00 0.00 0.00 0.01 0.06 0.12 0.17 0.14 0.15 0.26 0.14 0.04 0.02 0.01 0.00 0.00 0.00 0.00 0.00 0.00 0.00 0.00 0.00 0.00 0.00
0.00 0.00 0.01 0.01 0.01 0.01 0.02 0.02 0.03 0.04 0.16 0.12 0.04 0.03 0.05 0.05 0.08 0.04 0.01 0.00 0.00 0.00 0.00 0.02 0.12 0.02 0.01 0.03 0.07 0.13 0.04 0.05 0.15 0.18 0.10 0.01 0.00 0.00 0.00 0.00 0.00 0.00 0.00 0.00 0.00 0.00 0.00 0.00 0.00
0.00 0.00 0.01 0.01 0.01 0.00 0.00 0.01 0.00 0.04 0.03 0.02 0.01 0.02 0.02 0.06 0.03 0.00 0.00 0.00 0.00 0.00 0.02 0.07 0.24 0.15 0.07 0.05 0.12 0.13 0.16 0.10 0.13 0.13 0.05 0.01 0.01 0.00 0.00 0.00 0.00 0.00 0.00 0.00 0.00 0.00 0.00 0.00 0.00
0.00 0.00 0.00 0.00 0.00 0.00 0.01 0.01 0.00 0.02 0.01 0.01 0.00 0.01 0.01 0.01 0.01 0.00 0.00 0.00 0.02 0.03 0.05 0.14 0.19 0.33 0.45 0.53 0.51 0.26 0.09 0.05 0.05 0.03 0.02 0.01 0.01 0.00 0.00 0.00 0.00 0.00 0.00 0.00 0.00 0.00 0.00 0.00 0.00
0.00 0.00 0.00 0.00 0.00 0.00 0.00 0.00 0.00 0.00 0.00 0.01 0.00 0.00 0.00 0.00 0.00 0.00 0.01 0.03 0.05 0.06 0.07 0.18 0.24 0.64 1.11 0.66 0.21 0.08 0.08 0.03 0.01 0.02 0.02 0.01 0.00 0.00 0.00 0.00 0.00 0.00 0.00 0.00 0.00 0.00 0.00 0.00 0.00
0.00 0.00 0.00 0.00 0.00 0.00 0.00 0.00 0.00 0.00 0.00 0.01 0.00 0.00 0.01 0.00 0.00 0.02 0.03 0.04 0.06 0.07 0.19 0.32 0.59 0.77 0.31 0.09 0.07 0.04 0.02 0.01 0.02 0.02 0.00 0.00 0.00 0.00 0.00 0.00 0.00 0.00 0.00 0.00 0.00 0.00 0.00 0.00 0.00
0.00 0.00 0.00 0.00 0.00 0.00 0.00 0.00 0.00 0.00 0.00 0.00 0.00 0.00 0.00 0.00 0.00 0.01 0.01 0.04 0.14 0.25 0.24 0.18 0.10 0.11 0.02 0.02 0.03 0.01 0.01 0.00 0.00 0.00 0.00 0.00 0.00 0.00 0.00 0.00 0.00 0.00 0.00 0.00 0.00 0.00 0.00 0.00 0.00
0.00 0.00 0.00 0.00 0.00 0.00 0.00 0.00 0.00 0.00 0.00 0.00 0.00 0.00 0.00 0.00 0.00 0.01 0.02 0.06 0.06 0.03 0.01 0.06 0.08 0.13 0.04 0.01 0.01 0.00 0.00 0.00 0.00 0.00 0.00 0.00 0.00 0.00 0.00 0.00 0.00 0.00 0.00 0.00 0.00 0.00 0.00 0.00 0.00
0.00 0.00 0.00 0.00 0.00 0.00 0.00 0.00 0.01 0.00 0.00 0.00 0.00 0.00 0.00 0.01 0.01 0.01 0.00 0.00 0.01 0.02 0.03 0.06 0.11 0.14 0.04 0.01 0.00 0.00 0.01 0.03 0.01 0.00 0.00 0.00 0.00 0.00 0.00 0.00 0.00 0.00 0.00 0.00 0.00 0.00 0.00 0.00 0.00
0.00 0.00 0.00 0.00 0.00 0.02 0.00 0.00 0.01 0.01 0.00 0.00 0.00 0.00 0.00 0.00 0.00 0.00 0.01 0.00 0.00 0.04 0.07 0.08 0.09 0.14 0.08 0.01 0.05 0.06 0.04 0.01 0.00 0.00 0.00 0.00 0.00 0.00 0.00 0.00 0.00 0.00 0.00 0.00 0.00 0.00 0.00 0.00 0.00
0.00 0.00 0.00 0.00 0.00 0.01 0.01 0.00 0.00 0.00 0.01 0.02 0.00 0.00 0.00 0.00 0.01 0.02 0.02 0.01 0.01 0.05 0.07 0.09 0.12 0.13 0.03 0.02 0.02 0.06 0.03 0.01 0.01 0.00 0.00 0.00 0.00 0.00 0.00 0.00 0.00 0.00 0.00 0.00 0.00 0.00 0.00 0.00 0.00
0.00 0.00 0.00 0.06 0.01 0.00 0.00 0.01 0.00 0.00 0.01 0.08 0.04 0.00 0.00 0.00 0.01 0.02 0.02 0.01 0.02 0.04 0.08 0.07 0.06 0.06 0.02 0.01 0.01 0.02 0.02 0.01 0.01 0.00 0.00 0.00 0.00 0.00 0.00 0.00 0.00 0.00 0.00 0.00 0.00 0.00 0.01 0.01 0.03
0.00 0.00 0.00 0.05 0.06 0.01 0.01 0.01 0.00 0.00 0.00 0.00 0.01 0.00 0.00 0.00 0.00 0.01 0.01 0.02 0.02 0.05 0.14 0.11 0.09 0.06 0.02 0.01 0.01 0.02 0.01 0.00 0.00 0.00 0.00 0.00 0.00 0.00 0.00 0.00 0.01 0.01 0.00 0.00 0.00 0.01 0.02 0.03 0.04
0.00 0.00 0.00 0.00 0.01 0.00 0.00 0.00 0.00 0.00 0.00 0.00 0.00 0.00 0.00 0.00 0.00 0.00 0.00 0.02 0.02 0.02 0.10 0.13 0.09 0.07 0.05 0.04 0.04 0.06 0.06 0.03 0.01 0.01 0.01 0.01 0.00 0.01 0.02 0.02 0.01 0.00 0.00 0.00 0.00 0.01 0.02 0.02 0.03
0.00 0.00 0.00 0.00 0.00 0.00 0.00 0.00 0.00 0.01 0.00 0.00 0.00 0.00 0.00 0.00 0.00 0.00 0.00 0.00 0.01 0.01 0.03 0.03 0.03 0.05 0.05 0.03 0.03 0.03 0.04 0.02 0.02 0.02 0.02 0.00 0.01 0.02 0.02 0.01 0.01 0.00 0.00 0.00 0.01 0.01 0.02 0.04 0.04
0.00 0.00 0.00 0.00 0.00 0.00 0.00 0.00 0.00 0.00 0.00 0.00 0.00 0.00 0.00 0.00 0.00 0.00 0.00 0.00 0.00 0.00 0.00 0.00 0.01 0.02 0.01 0.01 0.03 0.03 0.03 0.02 0.02 0.02 0.01 0.00 0.00 0.00 0.01 0.02 0.00 0.00 0.00 0.00 0.02 0.04 0.03 0.02 0.01
0.00 0.01 0.02 0.00 0.00 0.00 0.00 0.00 0.00 0.00 0.00 0.00 0.00 0.00 0.00 0.00 0.00 0.00 0.00 0.00 0.00 0.00 0.00 0.00 0.01 0.02 0.02 0.02 0.03 0.03 0.01 0.00 0.00 0.00 0.00 0.00 0.01 0.00 0.00 0.00 0.00 0.00 0.01 0.02 0.03 0.01 0.00 0.00 0.00